Preview of NWS' New Version of Forecast
This preview is not operational and should not be used for support decisions.

Regional Weather Roundup (RWR)

Issued by National Weather Service (NWS)

                            
000
ASUS45 KCYS 242310
RWRWY 

WYOMING REGIONAL WEATHER ROUNDUP
NATIONAL WEATHER SERVICE CHEYENNE WY
500 PM MDT SAT AUG 24 2019

NOTE:  "FAIR" INDICATES FEW OR NO CLOUDS BELOW 12,000 FEET
WITH NO SIGNIFICANT WEATHER AND/OR OBSTRUCTIONS TO VISIBILITY.

WYZ001-250000-
...YELLOWSTONE NATIONAL PARK...
  
CITY           SKY/WX    TMP DP  RH WIND       PRES   REMARKS
LK YELLOWSTONE   N/A     70  27  20 SW8G24    30.18F                  
W YELLOWSTONE  NOT AVBL                                               

$$
WYZ002>013-054>058-071-098>099-250000-
...NORTHERN WYOMING...
  
CITY           SKY/WX    TMP DP  RH WIND       PRES   REMARKS
JACKSON        SUNNY     81  33  17 SW18G29   30.08F                  
CODY           MOSUNNY   84  43  23 E10       29.93F                  
GREYBULL       PTSUNNY   86  43  22 SE6       29.84F                  
WORLAND        CLOUDY    85  43  22 E10       29.86F                  
SHERIDAN       CLOUDY    81  53  37 S7        29.88F                  
BUFFALO        CLOUDY    78  47  33 NW3         N/A                   
GILLETTE       PTSUNNY   77  51  40 N7        29.92S                  
HULETT         FAIR      79  55  44 CALM      29.94S                  
NEWCASTLE      FAIR      79  48  34 W6G18     29.92S                  

$$
WYZ014>020-022>026-101>103-250000-
...CENTRAL WYOMING...
  
CITY           SKY/WX    TMP DP  RH WIND       PRES   REMARKS
BIG PINEY      SUNNY     82  32  16 NW8G20    30.13F                  
PINEDALE       SUNNY     79  28  15 NW15G25   30.14S                  
DUBOIS         FAIR      75  28  17 W17G29    30.10S                  
LANDER         MOSUNNY   86  39  19 VRB3      29.96F                  
RIVERTON       PTSUNNY   84  40  21 CALM      29.96F                  
CASPER         CLOUDY    85  35  16 NW12G22   29.97F                  
DOUGLAS        MOSUNNY   82  41  23 W13       29.96S                  

$$
WYZ021-027>030-104>119-250000-
...SOUTHERN WYOMING...
  
CITY           SKY/WX    TMP DP  RH WIND       PRES   REMARKS
EVANSTON       SUNNY     80  30  16 W22G30    30.20F                  
KEMMERER       SUNNY     79  23  12 W26G36    30.17F                  
FORT BRIDGER   NOT AVBL                                               
ROCK SPRINGS   SUNNY     84  30  14 W21G30    30.11F                  
DIXON          FAIR      84  23  11 SW10G21   30.13F                  
RAWLINS        SUNNY     82  25  12 W21G29    30.11S                  
SARATOGA       FAIR      81  23  12 W17G23    30.14S                  
LARAMIE        MOSUNNY   80  28  15 NW22G30   30.12F                  
CHEYENNE       SUNNY     83  29  14 NW14G25   30.05S                  
TORRINGTON     SUNNY     83  56  39 SE9       29.91S                  
PINE BLUFFS    FAIR      79  46  31 NE8       30.01S                  

$$